星链-34986(STARLINK-34986)

导读

STARLINK-34986是美国SpaceX公司星链(Starlink)星座的低轨通信卫星,于2025年11月11日发射入轨。星链星座旨在为全球提供宽带互联网接入服务,该卫星采用平板设计,搭载Ku/Ka波段通信载荷与氪工质霍尔推进器,具备自主避撞能力,设计寿命5-7年,退役后将主动离轨并在大气层烧毁。

Basic Information
目录编号:
66446
目录名称:
STARLINK-34986
国际标识:
2025-259AA
轨道中心:
EARTH
卫星名称:
星链-34986
卫星全名:
星链-34986(STARLINK-34986)
卫星状态:
在轨 (已飞行298 天)
发射日期:
2025-11-11 UTC
国别 :
美国 (US)
星等 :
--
Orbit Information
数据来源 国际轨道数据 AOE轨道数据
星历时间 2026-09-05T20:53:07+0800
4小时前
查看轨道信息
2026-08-31T08:00:00+0800
5天前
查看轨道信息
半长轴 6861.163km 6861.261km
偏心率 0.0001822 0.0001935
轨道倾角 43.001° 43.001°
近地点辐角 271.770° 271.353°
升交点赤经 338.916° 10.186°
平近点角 88.294° 204.186°
近地点 481.775km 481.796km
远地点 484.277km 484.452km
周期 94.266分钟 94.268分钟
每日圈数 15.27588 15.275553
Detailed Information
固有亮度:
5
最大亮度:
2.5
卫星平台:
Starlink V1.0
覆盖范围:
全球
运营商:
太空探索技术公司
运营商所在国:
美国
制造商(研发单位):
太空探索技术公司
制造商所在国:
美国
使用方式:
暂无
Satellite Introduction
Starlink 计划是 SpaceX 推出的全球卫星互联网项目,通过发射低轨道卫星,为全球尤其是偏远地区提供高速、低延迟的互联网服务。自 2019 年起,Starlink 已部署数千颗卫星,旨在缩小全球数字鸿沟,推动互联网普及。该项目还为军事、航空等行业提供通信支持,带来广泛经济效益。
2D Orbit Map
3D Orbit Map
Orbit Altitude Analysis Chart
Orbit Inclination Analysis Chart
Orbit Comprehensive Analysis Chart
View Comprehensive Chart